Home   Weather   Narva   Past weeks
Flag for Estonia

Past Weather in Narva, Estonia — Yesterday and Last 2 Weeks

Now
37 °F

Overcast.


Feels Like: 37 °F
Forecast: 42 / 30 °F
Wind: 2 mph from West

Location: Narva

Current Time: Apr 10, 2020 at 10:12:23 pm

Latest Report: Apr 10, 2020 at 9:00 pm


Visibility: 13 mi

Pressure: 30.02 "Hg

Humidity: 61%

Dew Point: 25 °F

Location of NarvaLocation

Past Weather in Narva — Graph

°F

Narva Temperature Yesterday

Maximum temperature yesterday: 45 °F (at 5:00 pm)
Minimum temperature yesterday: 37 °F (at 10:00 pm)
Average temperature yesterday: 42 °F

High & Low Weather Summary for the Past Weeks

 TemperatureHumidityPressure
High66 °F (Apr 7, 5:00 pm)88% (Apr 8, 2:00 am)30.52 "Hg (Apr 8, 2:00 am)
Low14 °F (Mar 31, 7:00 am)22% (Mar 30, 4:00 pm)28.97 "Hg (Apr 3, 3:00 am)
Average38 °F56%29.97 "Hg
* Reported Mar 26 7:00 pm — Apr 10 8:00 pm, Narva. Weather by CustomWeather, © 2020

Note: Actual official high and low records may vary slightly from our data, if they occured in-between our weather recording intervals... More about our weather records

Narva Weather History for the Previous 24 Hours

Scroll right to see more
 ConditionsComfort  
Time TempWeatherWind HumidityBarometerVisibility
8:00 pm
Fri, Apr 10
38 °FPartly sunny.5 mph55%30.02 "Hg12 mi
7:00 pm39 °FPartly sunny.5 mph50%30.02 "Hg12 mi
6:00 pm39 °FSunny.6 mph58%30.02 "Hg12 mi
5:00 pm40 °FSunny.7 mph58%30.02 "Hg12 mi
4:00 pm41 °FPassing clouds.7 mph58%30.02 "Hg12 mi
3:00 pm40 °FScattered clouds.9 mph62%30.02 "Hg12 mi
2:00 pm39 °FOvercast.8 mph65%30.01 "Hg12 mi
1:00 pm38 °FOvercast.8 mph66%30.00 "Hg12 mi
12:00 pm41 °FPassing clouds.7 mph63%29.98 "Hg12 mi
11:00 am41 °FPartly sunny.5 mph51%29.98 "Hg12 mi
10:00 am41 °FOvercast.3 mph53%29.98 "Hg12 mi
9:00 am39 °FScattered clouds.3 mph66%29.98 "Hg12 mi
8:00 am37 °FPartly sunny.5 mph72%29.98 "Hg12 mi
7:00 am32 °FSunny.2 mph79%29.96 "Hg12 mi
6:00 am35 °FClear.2 mph71%29.96 "Hg12 mi
5:00 am36 °FPassing clouds.3 mph66%29.94 "Hg12 mi
4:00 am37 °FClear.3 mph65%29.92 "Hg12 mi
3:00 am38 °FPassing clouds.5 mph64%29.90 "Hg12 mi
2:00 am39 °FOvercast.3 mph62%29.89 "Hg12 mi
1:00 am39 °FOvercast.3 mph67%29.88 "Hg12 mi
12:00 am38 °FOvercast.3 mph70%29.87 "Hg12 mi
11:00 pm
Thu, Apr 9
38 °FPassing clouds.3 mph64%29.85 "Hg12 mi
10:00 pm37 °FPassing clouds.3 mph69%29.83 "Hg12 mi
Weather by CustomWeather, © 2020

See weather overview

Advertising